"Pseudo-MPEC" for P10Ijf0

Created 2018 Jul 14 14:18:15 UT using Find_Orb

Click here for an explanation of pseudo-MPECs

 
 Astrometry: 
     P10Ijf0  C2018 07 10^=Astrometry.#XQGRgDX:p:tulVplgP^.FLmo#QfeTD!w*y/xo#F51
     P10Ijf0  C2018 07 10yjxkb/;.vEl*kw`u(M`7qWlHalW9aZl+37GBRUrx!i@T*o61VM\3F51
     P10Ijf0  C2018 07 10@+NfgMQ43dKZ`$jXk4EeBO[Y:k`wXZ(,FxMNOaam3u-k?eG1TlPPF51
     P10Ijf0  C2018 07 10vec6VJ34^ot+H3Q=NE*IRuirBTi*Vep@UDio(8Cg`y8=N7!Riwu;F51
     P10Ijf0 |C2018 07 11sOub3R']L]p3xVf%Vredacted;@qMo.N!Q%vmy%h;ltwPFZn:[oX807
     P10Ijf0 |C2018 07 11k57!U.N$pW%H\!o5Z7QM2N#XbKO`D4Q3Shh[G_8L-u(V0bm;5%Cl807
     P10Ijf0 |C2018 07 118+qgaWePcxV@xwg]6:Devu^n7NM4te@F,[#q1foA\6tZW1JqV5m0807
     P10Ijf0 |C2018 07 13d,XU4`j.K0TXE2)1RyRiiLIF^Mrnb?XL%k(9QrV\0h[BrlOKEnKA807
     P10Ijf0 |C2018 07 13ncH@10`D6e5rY@D[PZk?hk.qp-i3d2v2seeSbvm,22A_k;]EL4n/807
     P10Ijf0 |C2018 07 13BeY*Tw=r0m*=Uda8v\QBQ5w-N;AB%ca^Go\gF2q=Aw')jW?uSq00807
     P10Ijf0  C2018 07 13H=^c^[hv'#l=B3cT_Zu6;XLRV#f6K^N4vcWR`^V,Uxs,XR[oGnOsF51
     P10Ijf0  C2018 07 13F+SILCt0Lb`5s9O1I[fG/^-gjh\7\f1\qd+CbY-4vHIoaS[0hG1wF51
     P10Ijf0  C2018 07 13`reP`!hwgSY_=?\YxDmtlqD-J%q8\6@TUqnV9EDl%]cx?CPNEOCPF51

Station data:
(807) Cerro Tololo Observatory, La Serena  (S30.169136 W70.805900)  Chile.
   1.5-m Ritchey-Chrétien.
(F51) Pan-STARRS 1, Haleakala  (N20.707235 W156.255910)  US/Hawaii.
   Observers N. Primak, A. Schultz, S. Watters, J. Thiel, T. Goggia. Measurer
   PS1 Science Consortium. 1.8-m Ritchey-Chrétien + CCD.

Orbital elements:  P10Ijf0
   Perihelion 2018 Jun 26.762408 +/- 0.39 TT = 18:17:52 (JD 2458296.262408)
Epoch 2018 Jul 13.0 TT = JDT 2458312.5   Earth MOID: 0.2318   AutoNEOCP
M   5.08336 +/- 0.06                (J2000 ecliptic)
n   0.31306127 +/- 0.00757          Peri.  338.06646 +/- 0.32
a   2.14807685 +/- 0.0346           Node   299.96994 +/- 0.013
e   0.4208425 +/- 0.00805           Incl.    6.69658 +/- 0.08
P   3.15                   H 24.0   G  0.15   U  9.5  
q 1.24407470 +/- 0.00287    Q 3.05207900 +/- 0.068
From 13 observations 2018 July 10-13; mean residual 0".18
Residuals in arcseconds: 
180710 F51  .40-  .19-    180711 807  .43+  .04-    180713 F51  .05+  .02+    
180710 F51  .14+  .05+    180711 807  .30-  .29-    180713 F51  .02-  .18-    
180710 F51  .03-  .09+    180713 807  .07-  .06+    180713 F51  .16-  .03+    
180710 F51  .09-  .21+    180713 807  .02+  .00     
180711 807  .35+  .09+    180713 807  .06+  .17+    

Ephemerides (geocentric):
Date (UTC) HH   RA              Dec         delta   r     elong  mag " sig PA
---- -- -- --  -------------   -----------  ------ ------ -----  --- ---- ---
2018 07 14 14  20 05 12.800   -24 37 48.84  .24197 1.2567 172.3 21.9  1.4 175
2018 07 14 15  20 05 14.288   -24 36 25.70  .24201 1.2568 172.4 21.9  1.4 175
2018 07 14 16  20 05 15.774   -24 35 02.58  .24206 1.2569 172.4 21.9  1.5 175
2018 07 14 17  20 05 17.257   -24 33 39.48  .24210 1.2569 172.4 21.9  1.5 176
2018 07 14 18  20 05 18.738   -24 32 16.40  .24215 1.2570 172.5 21.9  1.6 176
2018 07 14 19  20 05 20.215   -24 30 53.34  .24219 1.2570 172.5 21.9  1.6 176
2018 07 14 20  20 05 21.690   -24 29 30.30  .24224 1.2571 172.5 21.9  1.7 176
2018 07 14 21  20 05 23.162   -24 28 07.29  .24228 1.2571 172.6 21.9  1.7 176
2018 07 14 22  20 05 24.631   -24 26 44.29  .24233 1.2572 172.6 21.9  1.8 177
2018 07 14 23  20 05 26.097   -24 25 21.31  .24238 1.2573 172.6 21.9  1.8 177
2018 07 15 00  20 05 27.560   -24 23 58.36  .24242 1.2573 172.7 21.9  1.9 177
2018 07 15 01  20 05 29.021   -24 22 35.42  .24247 1.2574 172.7 21.9  2.0 177
2018 07 15 02  20 05 30.479   -24 21 12.51  .24252 1.2574 172.8 21.9  2.0 177
2018 07 15 03  20 05 31.934   -24 19 49.62  .24256 1.2575 172.8 21.9  2.1 177
2018 07 15 04  20 05 33.387   -24 18 26.75  .24261 1.2576 172.8 21.9  2.1 178
2018 07 15 05  20 05 34.837   -24 17 03.91  .24266 1.2576 172.9 21.9  2.2 178
2018 07 15 06  20 05 36.284   -24 15 41.09  .24270 1.2577 172.9 21.9  2.3 178
2018 07 15 07  20 05 37.728   -24 14 18.29  .24275 1.2578 172.9 21.9  2.3 178
2018 07 15 08  20 05 39.170   -24 12 55.51  .24280 1.2578 173.0 21.9  2.4 178
2018 07 15 09  20 05 40.609   -24 11 32.75  .24285 1.2579 173.0 21.9  2.5 178
2018 07 15 10  20 05 42.045   -24 10 10.02  .24290 1.2579 173.0 21.9  2.5 178
2018 07 15 11  20 05 43.479   -24 08 47.31  .24295 1.2580 173.1 21.9  2.6 179
2018 07 15 12  20 05 44.910   -24 07 24.63  .24299 1.2581 173.1 21.9  2.6 179
2018 07 15 13  20 05 46.338   -24 06 01.97  .24304 1.2581 173.2 21.9  2.7 179
2018 07 15 14  20 05 47.764   -24 04 39.33  .24309 1.2582 173.2 21.9  2.8 179
2018 07 15 15  20 05 49.187   -24 03 16.72  .24314 1.2582 173.2 21.9  2.9 179
2018 07 15 16  20 05 50.608   -24 01 54.13  .24319 1.2583 173.3 21.9  2.9 179
2018 07 15 17  20 05 52.026   -24 00 31.56  .24324 1.2584 173.3 21.9  3.0 179
2018 07 15 18  20 05 53.441   -23 59 09.02  .24329 1.2584 173.3 21.9  3.1 179
2018 07 15 19  20 05 54.854   -23 57 46.51  .24334 1.2585 173.4 21.9  3.1 179
2018 07 15 20  20 05 56.264   -23 56 24.02  .24339 1.2586 173.4 21.9  3.2 179
2018 07 15 21  20 05 57.672   -23 55 01.55  .24344 1.2586 173.4 21.9  3.3 179
2018 07 15 22  20 05 59.077   -23 53 39.11  .24350 1.2587 173.5 21.9  3.4   0
2018 07 15 23  20 06 00.480   -23 52 16.70  .24355 1.2587 173.5 21.9  3.4   0
2018 07 16 00  20 06 01.880   -23 50 54.31  .24360 1.2588 173.6 21.9  3.5   0
2018 07 16 01  20 06 03.278   -23 49 31.95  .24365 1.2589 173.6 21.9  3.6   0
2018 07 16 02  20 06 04.673   -23 48 09.61  .24370 1.2589 173.6 21.9  3.7   0
2018 07 16 03  20 06 06.065   -23 46 47.30  .24375 1.2590 173.7 21.9  3.7   0
2018 07 16 04  20 06 07.456   -23 45 25.02  .24381 1.2591 173.7 21.9  3.8   0
2018 07 16 05  20 06 08.843   -23 44 02.76  .24386 1.2591 173.7 21.9  3.9   0
2018 07 16 06  20 06 10.229   -23 42 40.53  .24391 1.2592 173.8 21.9  4.0   0
2018 07 16 07  20 06 11.612   -23 41 18.33  .24396 1.2593 173.8 21.9  4.1   0
2018 07 16 08  20 06 12.992   -23 39 56.15  .24402 1.2593 173.8 21.9  4.1   0
2018 07 16 09  20 06 14.370   -23 38 34.00  .24407 1.2594 173.9 21.9  4.2   0
2018 07 16 10  20 06 15.746   -23 37 11.88  .24412 1.2594 173.9 21.9  4.3   0
2018 07 16 11  20 06 17.119   -23 35 49.79  .24418 1.2595 174.0 21.9  4.4   0
2018 07 16 12  20 06 18.490   -23 34 27.72  .24423 1.2596 174.0 21.9  4.5   0
2018 07 16 13  20 06 19.858   -23 33 05.68  .24429 1.2596 174.0 21.9  4.5   1